Weather Roundup
Issued by NWS Springfield, MO

Home | Current Version | Previous Version | Text Only | Print | Product List | Glossary On
Versions: 1 2 3 4 5 6 7 8 9 10 11 12 13 14 15 16 17 18 19 20 21 22 23 24 25 26 27 28 29 30 31 32 33 34 35 36 37 38 39 40 41 42 43 44 45 46 47 48 49 50
000
NZUS99 KSGF 240507
HRRSGF

HOURLY WEATHER
NATIONAL WEATHER SERVICE SPRINGFIELD MO
1100 PM CST SUN NOV 23 2014

......SGF CWA......

CITY           SKY/WX    TMP DP  RH WIND       PRES   REMARKS
SPRINGFIELD    LGT RAIN  44  41  89 NW15G28   29.40R
JOPLIN         LGT RAIN  41  38  89 NW17G25   29.54R
WEST PLAINS    CLOUDY    56  52  86 SW9       29.30S
ROLLA          HVY RAIN  53  51  93 SW17      29.24S FOG
OSAGE BEACH    CLOUDY    45  41  87 NW7G20    29.34R
BRANSON        LGT RAIN  45  43  93 NW12G21   29.43R

......SURROUNDING SGF CWA......

CITY           SKY/WX    TMP DP  RH WIND       PRES   REMARKS
CHANUTE        CLOUDY    43  36  76 NW15      29.56R
PARSONS        CLOUDY    43  37  79 NW16      29.59R
COFFEYVILLE    CLOUDY    44  37  76 NW13      29.60R
EMPORIA        CLOUDY    41  34  76 NW14      29.58R
GROVE OK       RAIN      43  43 100 NW17G24   29.59R
ROGERS AR      LGT RAIN  43  40  89 NW22G28   29.51R
SILOAM SPRINGS CLOUDY    43  36  75 NW20G26   29.56R
HARRISON AR    LGT RAIN  46  44  93 W16G29    29.41R
NEAR YELLVILLE PTCLDY    55  48  76 W28G39    29.34R

......KANSAS AND MISSOURI......

CITY           SKY/WX    TMP DP  RH WIND       PRES   REMARKS
KANSAS CTY INT CLOUDY    41  35  79 NW14G22   29.46F
DOWNTOWN KC    CLOUDY    43  34  70 NW15G25   29.46F
COLUMBIA       LGT RAIN  45  44  97 NW23G33   29.29R FOG
SEDALIA        LGT RAIN  41  38  89 NW18G36   29.41R
ST JOSEPH      CLOUDY    41  33  73 NW20G26   29.48S
ST LOUIS       CLOUDY    56  54  93 SW6       29.23F
SPIRIT OF STL  CLOUDY    54  54 100 W3        29.22F
KIRKSVILLE     LGT RAIN  40  39  97 NW20G28   29.33R FOG     WCI  30
WICHITA        CLOUDY    43  31  62 NW20G28   29.67R
TOPEKA         CLOUDY    43  30  60 NW20G31   29.54S
OLATHE         CLOUDY    42  34  73 NW16G26   29.46S

......TENNESSEE......

CITY           SKY/WX    TMP DP  RH WIND       PRES   REMARKS
MEMPHIS        PTCLDY    62  57  83 S18G29    29.44F
NASHVILLE      MOCLDY    62  57  83 SW13G21   29.50S

......ARKANSAS.......

CITY           SKY/WX    TMP DP  RH WIND       PRES   REMARKS
FAYETTEVILLE   RAIN      43  42  97 NW16G23   29.53R FOG
FT SMITH       CLOUDY    49  43  80 W20G32    29.56R
LITTLE ROCK    CLEAR     61  54  77 SW15G22   29.42R

......OKLAHOMA.......

CITY           SKY/WX    TMP DP  RH WIND       PRES   REMARKS
TULSA          CLOUDY    44  39  82 NW14      29.65R
PONCA CITY     MOCLDY    42  36  79 NW8       29.68R
MCALESTER      CLOUDY    48  39  71 N16G25    29.71R
OKLAHOMA CITY  PTCLDY    43  35  73 W8        29.76R

......IOWA............

CITY           SKY/WX    TMP DP  RH WIND       PRES   REMARKS
DES MOINES     FLURRIES  36  31  82 N17       29.39S WCI  26
QUAD CITIES    LGT RAIN  50  48  93 W9        29.15F FOG

......ILLINOIS........

CITY           SKY/WX    TMP DP  RH WIND       PRES   REMARKS
QUINCY         LGT RAIN  48  46  93 NW22G30   29.22R FOG
CHICAGO        LGT RAIN  48  48 100 CALM      29.11F VSB 1/2



USA.gov is the U.S. government's official web portal to all federal, state and local government web resources and services.